(°C)
20°
20°
20°
20°
20°
20°
20°
(°C)
21°
21°
21°
22°
22°
22°
21°
Z
Z
ZSZ
Z
Z
Z
ZSZ
(km/h)
10-22
12-23
10-24
10-24
10-23
12-22
11-22
(mm)
3
0
2.3
1.3
0
0
0
(%)
36
21
39
46
34
22
21

Podizanje Sunca

/ -8.9°
sun-icon
UV 4
05:08
20:56
Opadajući mesec (247°)
23:20
11:19

METAR za 52.53°S 31.02°I (UMGG)

Vreme Uslovi Temperatura/
Tačka rose
Vetar Vidljivost Prognoza Oblaci Pritisak Promena Neobrađeno
MVFR 21°C / 20°C 310º 6kt 7000m Light Showers Rain 3.00mm precipitation Vertical Visibility of 0ft. 1007 No Significant change. Runway 28: Wet or puddles, 51-100% contamination with <1mm, friction coefficient 0.50. UMGG 291800Z 31003MPS 7000 -SHRA SCT056CB BKN100 21/20 Q1007 R28/290050 NOSIG
MVFR 24°C / 21°C 290º 12kt 8000m Light Showers Rain 3.00mm precipitation Vertical Visibility of 0ft. 1007 No Significant change. Runway 28: Wet or puddles, 51-100% contamination with <1mm, friction coefficient 0.50. UMGG 291700Z 29006MPS 8000 -SHRA BKN056CB OVC100 24/21 Q1007 R28/290050 NOSIG
MVFR 27°C / 19°C 290º 12kt Gust 17kt 8000m Light Showers Rain 3.00mm precipitation Vertical Visibility of 0ft. 1007 No Significant change UMGG 291630Z 29006G09MPS 8000 -SHRA BKN050CB OVC100 27/19 Q1007 R28/CLRD// NOSIG
MVFR 27°C / 19°C 270º 14kt Gust 23kt 6000m Light Showers Rain 3.00mm precipitation Vertical Visibility of 0ft. 1006 Temporary: Visibility 2000. Thunderstorm Rain . UMGG 291600Z 27007G12MPS 6000 -SHRA BKN050CB OVC100 27/19 Q1006 R28/D TEMPO 2000 TSRA
VFR 31°C / 16°C 290º 16kt Gust 25kt >10km - Broken Clouds 5000ft 1006 No Significant change UMGG 291530Z 29008G13MPS 9999 BKN050CB OVC100 31/16 Q1006 R28/CLRD// NOSIG
VFR 31°C / 16°C 260º 10kt >10km - Scattered Clouds 5000ft 1006 No Significant change UMGG 291500Z 26005MPS 9999 SCT050CB BKN100 31/16 Q1006 R28/D NOSIG
VFR 31°C / 16°C 240º 10kt >10km - Clouds and Visibility OK 1007 No Significant change UMGG 291430Z 24005MPS CAVOK 31/16 Q1007 R28/D NOSIG
VFR 31°C / 16°C 240º 10kt >10km - Clouds and Visibility OK 1007 No Significant change UMGG 291400Z 24005MPS CAVOK 31/16 Q1007 R28/D NOSIG
VFR 30°C / 17°C 250º 12kt >10km - Clouds and Visibility OK 1007 No Significant change UMGG 291330Z 25006MPS CAVOK 30/17 Q1007 R28/CLRD// NOSIG
VFR 30°C / 17°C 250º 12kt >10km - Clouds and Visibility OK 1007 No Significant change UMGG 291300Z 25006MPS CAVOK 30/17 Q1007 R28/D NOSIG
VFR 30°C / 17°C 220º 12kt >10km - Clouds and Visibility OK 1008 No Significant change UMGG 291230Z 22006MPS CAVOK 30/17 Q1008 R10/D NOSIG
VFR 30°C / 17°C 200º 8kt >10km - Clouds and Visibility OK 1008 No Significant change UMGG 291200Z 20004MPS CAVOK 30/17 Q1008 R28/CLRD// NOSIG
VFR 29°C / 17°C 230º 12kt >10km - Clouds and Visibility OK 1008 No Significant change UMGG 291130Z 23006MPS CAVOK 29/17 Q1008 R28/CLRD// NOSIG
VFR 29°C / 17°C 240º 14kt >10km - Clouds and Visibility OK 1009 No Significant change UMGG 291100Z 24007MPS CAVOK 29/17 Q1009 R28/CLRD// NOSIG
VFR 29°C / 18°C 250º 10kt Gust 16kt >10km - Clouds and Visibility OK 1009 No Significant change UMGG 291030Z 25005G08MPS CAVOK 29/18 Q1009 R28/CLRD// NOSIG
VFR 29°C / 18°C 220º 8kt >10km - Clouds and Visibility OK 1009 No Significant change UMGG 291000Z 22004MPS CAVOK 29/18 Q1009 R28/CLRD// NOSIG
VFR 29°C / 18°C 230º 10kt >10km - Clouds and Visibility OK 1009 No Significant change UMGG 290930Z 23005MPS CAVOK 29/18 Q1009 R28/CLRD// NOSIG
VFR 29°C / 18°C 210º 10kt >10km - Clouds and Visibility OK 1009 No Significant change UMGG 290900Z 21005MPS CAVOK 29/18 Q1009 R28/CLRD// NOSIG
VFR 28°C / 18°C 210º 6kt >10km - Clouds and Visibility OK 1009 No Significant change UMGG 290830Z 21003MPS CAVOK 28/18 Q1009 R28/CLRD// NOSIG
VFR 28°C / 18°C 210º 6kt >10km - Clouds and Visibility OK 1009 No Significant change UMGG 290800Z 21003MPS CAVOK 28/18 Q1009 R28/CLRD// NOSIG
VFR 27°C / 19°C 230º 6kt >10km - Clouds and Visibility OK 1010 No Significant change UMGG 290730Z 23003MPS CAVOK 27/19 Q1010 R28/CLRD// NOSIG
VFR 27°C / 19°C 250º 6kt >10km - Clouds and Visibility OK 1010 No Significant change UMGG 290700Z 25003MPS CAVOK 27/19 Q1010 R28/D NOSIG
VFR 26°C / 19°C 210º 4kt >10km - Clouds and Visibility OK 1010 No Significant change UMGG 290600Z 21002MPS CAVOK 26/19 Q1010 R28/CLRD// NOSIG
VFR 24°C / 19°C 210º 4kt 9000m - Clear 1010 No Significant change UMGG 290530Z 21002MPS 9000 NSC 24/19 Q1010 R28/CLRD// NOSIG

MVFR

21°C / 20°C

[Više]
Vetar 310º 6kt
Vidljivost 7000m
Prognoza Light Showers Rain 3.00mm precipitation
Oblaci Vertical Visibility of 0ft.
Pritisak 1007
Promena No Significant change. Runway 28: Wet or puddles, 51-100% contamination with <1mm, friction coefficient 0.50.
Neobrađeno UMGG 291800Z 31003MPS 7000 -SHRA SCT056CB BKN100 21/20 Q1007 R28/290050 NOSIG

MVFR

24°C / 21°C

[Više]
Vetar 290º 12kt
Vidljivost 8000m
Prognoza Light Showers Rain 3.00mm precipitation
Oblaci Vertical Visibility of 0ft.
Pritisak 1007
Promena No Significant change. Runway 28: Wet or puddles, 51-100% contamination with <1mm, friction coefficient 0.50.
Neobrađeno UMGG 291700Z 29006MPS 8000 -SHRA BKN056CB OVC100 24/21 Q1007 R28/290050 NOSIG

MVFR

27°C / 19°C

[Više]
Vetar 290º 12kt Gust 17kt
Vidljivost 8000m
Prognoza Light Showers Rain 3.00mm precipitation
Oblaci Vertical Visibility of 0ft.
Pritisak 1007
Promena No Significant change
Neobrađeno UMGG 291630Z 29006G09MPS 8000 -SHRA BKN050CB OVC100 27/19 Q1007 R28/CLRD// NOSIG

MVFR

27°C / 19°C

[Više]
Vetar 270º 14kt Gust 23kt
Vidljivost 6000m
Prognoza Light Showers Rain 3.00mm precipitation
Oblaci Vertical Visibility of 0ft.
Pritisak 1006
Promena Temporary: Visibility 2000. Thunderstorm Rain .
Neobrađeno UMGG 291600Z 27007G12MPS 6000 -SHRA BKN050CB OVC100 27/19 Q1006 R28/D TEMPO 2000 TSRA

VFR

31°C / 16°C

[Više]
Vetar 290º 16kt Gust 25kt
Vidljivost >10km
Prognoza -
Oblaci Broken Clouds 5000ft
Pritisak 1006
Promena No Significant change
Neobrađeno UMGG 291530Z 29008G13MPS 9999 BKN050CB OVC100 31/16 Q1006 R28/CLRD// NOSIG

VFR

31°C / 16°C

[Više]
Vetar 260º 10kt
Vidljivost >10km
Prognoza -
Oblaci Scattered Clouds 5000ft
Pritisak 1006
Promena No Significant change
Neobrađeno UMGG 291500Z 26005MPS 9999 SCT050CB BKN100 31/16 Q1006 R28/D NOSIG

VFR

31°C / 16°C

[Više]
Vetar 240º 10kt
Vidljivost >10km
Prognoza -
Oblaci Clouds and Visibility OK
Pritisak 1007
Promena No Significant change
Neobrađeno UMGG 291430Z 24005MPS CAVOK 31/16 Q1007 R28/D NOSIG

VFR

31°C / 16°C

[Više]
Vetar 240º 10kt
Vidljivost >10km
Prognoza -
Oblaci Clouds and Visibility OK
Pritisak 1007
Promena No Significant change
Neobrađeno UMGG 291400Z 24005MPS CAVOK 31/16 Q1007 R28/D NOSIG

VFR

30°C / 17°C

[Više]
Vetar 250º 12kt
Vidljivost >10km
Prognoza -
Oblaci Clouds and Visibility OK
Pritisak 1007
Promena No Significant change
Neobrađeno UMGG 291330Z 25006MPS CAVOK 30/17 Q1007 R28/CLRD// NOSIG

VFR

30°C / 17°C

[Više]
Vetar 250º 12kt
Vidljivost >10km
Prognoza -
Oblaci Clouds and Visibility OK
Pritisak 1007
Promena No Significant change
Neobrađeno UMGG 291300Z 25006MPS CAVOK 30/17 Q1007 R28/D NOSIG

VFR

30°C / 17°C

[Više]
Vetar 220º 12kt
Vidljivost >10km
Prognoza -
Oblaci Clouds and Visibility OK
Pritisak 1008
Promena No Significant change
Neobrađeno UMGG 291230Z 22006MPS CAVOK 30/17 Q1008 R10/D NOSIG

VFR

30°C / 17°C

[Više]
Vetar 200º 8kt
Vidljivost >10km
Prognoza -
Oblaci Clouds and Visibility OK
Pritisak 1008
Promena No Significant change
Neobrađeno UMGG 291200Z 20004MPS CAVOK 30/17 Q1008 R28/CLRD// NOSIG

VFR

29°C / 17°C

[Više]
Vetar 230º 12kt
Vidljivost >10km
Prognoza -
Oblaci Clouds and Visibility OK
Pritisak 1008
Promena No Significant change
Neobrađeno UMGG 291130Z 23006MPS CAVOK 29/17 Q1008 R28/CLRD// NOSIG

VFR

29°C / 17°C

[Više]
Vetar 240º 14kt
Vidljivost >10km
Prognoza -
Oblaci Clouds and Visibility OK
Pritisak 1009
Promena No Significant change
Neobrađeno UMGG 291100Z 24007MPS CAVOK 29/17 Q1009 R28/CLRD// NOSIG

VFR

29°C / 18°C

[Više]
Vetar 250º 10kt Gust 16kt
Vidljivost >10km
Prognoza -
Oblaci Clouds and Visibility OK
Pritisak 1009
Promena No Significant change
Neobrađeno UMGG 291030Z 25005G08MPS CAVOK 29/18 Q1009 R28/CLRD// NOSIG

VFR

29°C / 18°C

[Više]
Vetar 220º 8kt
Vidljivost >10km
Prognoza -
Oblaci Clouds and Visibility OK
Pritisak 1009
Promena No Significant change
Neobrađeno UMGG 291000Z 22004MPS CAVOK 29/18 Q1009 R28/CLRD// NOSIG

VFR

29°C / 18°C

[Više]
Vetar 230º 10kt
Vidljivost >10km
Prognoza -
Oblaci Clouds and Visibility OK
Pritisak 1009
Promena No Significant change
Neobrađeno UMGG 290930Z 23005MPS CAVOK 29/18 Q1009 R28/CLRD// NOSIG

VFR

29°C / 18°C

[Više]
Vetar 210º 10kt
Vidljivost >10km
Prognoza -
Oblaci Clouds and Visibility OK
Pritisak 1009
Promena No Significant change
Neobrađeno UMGG 290900Z 21005MPS CAVOK 29/18 Q1009 R28/CLRD// NOSIG

VFR

28°C / 18°C

[Više]
Vetar 210º 6kt
Vidljivost >10km
Prognoza -
Oblaci Clouds and Visibility OK
Pritisak 1009
Promena No Significant change
Neobrađeno UMGG 290830Z 21003MPS CAVOK 28/18 Q1009 R28/CLRD// NOSIG

VFR

28°C / 18°C

[Više]
Vetar 210º 6kt
Vidljivost >10km
Prognoza -
Oblaci Clouds and Visibility OK
Pritisak 1009
Promena No Significant change
Neobrađeno UMGG 290800Z 21003MPS CAVOK 28/18 Q1009 R28/CLRD// NOSIG

VFR

27°C / 19°C

[Više]
Vetar 230º 6kt
Vidljivost >10km
Prognoza -
Oblaci Clouds and Visibility OK
Pritisak 1010
Promena No Significant change
Neobrađeno UMGG 290730Z 23003MPS CAVOK 27/19 Q1010 R28/CLRD// NOSIG

VFR

27°C / 19°C

[Više]
Vetar 250º 6kt
Vidljivost >10km
Prognoza -
Oblaci Clouds and Visibility OK
Pritisak 1010
Promena No Significant change
Neobrađeno UMGG 290700Z 25003MPS CAVOK 27/19 Q1010 R28/D NOSIG

VFR

26°C / 19°C

[Više]
Vetar 210º 4kt
Vidljivost >10km
Prognoza -
Oblaci Clouds and Visibility OK
Pritisak 1010
Promena No Significant change
Neobrađeno UMGG 290600Z 21002MPS CAVOK 26/19 Q1010 R28/CLRD// NOSIG

VFR

24°C / 19°C

[Više]
Vetar 210º 4kt
Vidljivost 9000m
Prognoza -
Oblaci Clear
Pritisak 1010
Promena No Significant change
Neobrađeno UMGG 290530Z 21002MPS 9000 NSC 24/19 Q1010 R28/CLRD// NOSIG

TAF za 52.53°S 31.02°I (UMGG)

From till


Maximum Temperature 26ºC on . Minimum Temperature 18ºC on .
From till Wind 270º 12kt. Visibility 10km or more. Broken Clouds 3000ft.
Temporarly from till Wind 300º 10kt. Visibility 1200m. Showers Rain Mist . Broken Clouds 400ft. Broken Clouds 2500ft.
Temporarly from till Wind 310º 12kt. Gust 21kt. Visibility 2000m. Showers Rain Mist . Broken Clouds 500ft. Broken Clouds 3000ft.
Temporarly from till Wind 310º 12kt. Gust 21kt.

Neobrađeno: TAF UMGG 291656Z 2918/3018 27006MPS 9999 BKN030 TX26/3011Z TN18/3002Z TEMPO 2918/3003 30005MPS 1200 SHRA BR BKN004 BKN025CB TEMPO 3003/3010 31006G11MPS 2000 SHRA BR BKN005 BKN030CB TEMPO 3010/3018 31006G11MPS

Trenutni satelitski snimci i slike kiše za 52.53°S 31.02°I

Marker lokacije postavljen je na 52.53°S 31.02°I. [Više]

Satelitski snimci u realnom vremenu kombinuju vidljivu svetlost tokom dana sa infracrvenim zračenjem tokom noći. Noću slika nije tamna jer infracrveno zračenje može otkriti temperaturne razlike. Nažalost, niski oblaci i magla teško se mogu razlikovati od temperature zemlje tako da mogu biti skoro nevidljivi tokom noći. Meteosat satelitski snimci za Evropu se ažuriraju u realnom vremenu na svakih 5 minuta. Slnimci GOES-16/GOES-17 (Severna i Južna Amerika) and Himawari (Azia) ažuriraju se na svakih 10 minuta.

Autorsko pravo 2021 EUMETSAT / meteoblue. / Autorsko pravo 2021 meteoblue

Radar i padavine kratka prognoza za 52.53°S 31.02°I

Rominjati
Svjetlo
Umjereno
Teška
Vrlo teško
Zdravo

Marker lokacije postavljen je na 52.53°S 31.02°I. Ova animacija prikazuje radar padavina za poslednji sat, kao i 1h prognozu. Moguće je da rominjanje i slab sneg ne budu vidljivi na ovom radaru. Intezitet padavina je predstavljen bojama koje varijaju od svetlo plave do jako ljubičaste.